Date,TemperatureHighF,TemperatureAvgF,TemperatureLowF,DewpointHighF,DewpointAvgF,DewpointLowF,HumidityHigh,HumidityAvg,HumidityLow,PressureMaxIn,PressureMinIn,WindSpeedMaxMPH,WindSpeedAvgMPH,GustSpeedMaxMPH,PrecipitationSumIn
2013-3-2,46.2,41.4,37.6,31.3,27.2,21.1,75,57,41,27.49,27.37,8,1,8,0.00
2013-3-3,37.6,31.7,28.4,21.5,11.3,7.7,53,42,39,27.43,27.37,19,4,19,0.00
2013-3-5,39.2,33.8,28.0,18.9,11.0,2.5,55,39,29,27.49,27.32,10,3,10,0.00
2013-3-6,43.7,36.8,33.3,21.5,17.0,12.9,51,44,39,27.32,27.11,10,2,10,0.00
2013-3-7,37.6,37.6,37.6,21.1,21.1,21.1,51,51,51,27.11,27.11,0,0,0,0.00
2013-3-8,37.6,37.6,37.6,21.1,21.1,21.1,51,51,51,27.11,27.11,0,0,0,0.00
2013-3-9,37.6,37.6,37.6,21.1,21.1,21.1,51,51,51,27.11,27.11,0,0,0,0.00
2013-3-10,37.6,37.6,37.6,21.1,21.1,21.1,51,51,51,27.11,27.11,0,0,0,0.00
2013-3-11,37.6,37.6,37.6,21.1,21.1,21.1,51,51,51,27.11,27.11,0,0,0,0.00
2013-3-12,56.7,44.4,36.1,30.8,25.0,17.7,66,47,31,27.58,27.11,12,1,12,0.35
2013-3-13,59.2,47.0,38.3,30.8,26.1,23.0,63,45,27,27.64,27.55,7,1,7,0.00
2013-3-14,62.6,48.7,39.6,29.5,25.7,17.8,61,42,25,27.61,27.46,11,1,11,0.00
2013-3-15,60.4,46.3,33.3,26.5,21.2,16.5,61,38,22,27.61,27.49,10,2,10,0.00
2013-3-16,55.2,43.2,34.7,25.9,21.0,11.1,66,43,26,27.52,27.20,13,2,13,0.00
2013-3-17,48.9,35.1,27.7,13.0,7.6,1.6,49,33,19,27.46,27.20,15,4,15,0.00
2013-3-18,44.8,31.7,23.7,13.5,8.8,3.1,55,39,20,27.61,27.40,17,3,17,0.00
2013-3-19,48.2,33.4,18.3,13.6,8.5,4.5,58,38,19,27.70,27.32,13,2,13,0.00
2013-3-20,51.3,42.7,32.7,36.2,23.7,10.5,77,48,29,27.32,27.02,19,2,19,0.47
2013-3-21,43.3,32.9,23.4,15.3,8.3,2.3,52,36,21,27.46,27.26,20,3,20,0.00
2013-3-22,45.5,29.8,21.9,9.2,5.8,0.8,54,38,20,27.67,27.43,14,2,14,0.00
2013-3-23,44.1,28.2,16.2,12.4,6.5,2.6,56,41,20,27.76,27.67,11,1,11,0.00
2013-3-24,44.8,29.7,18.3,11.7,5.7,-2.8,58,39,20,27.79,27.64,12,1,12,0.00
2013-3-25,50.0,37.1,18.7,11.5,7.3,1.5,47,30,19,27.61,27.46,9,2,10,0.00
2013-3-26,55.2,38.3,23.9,14.7,9.8,6.0,47,32,18,27.49,27.43,9,1,9,0.00
2013-3-27,59.2,43.8,31.6,23.4,18.0,11.3,59,37,24,27.49,27.40,8,1,8,0.00
2013-3-28,61.9,44.7,32.5,29.2,23.4,18.6,74,48,21,27.55,27.46,9,1,9,0.00
2013-3-29,64.2,48.4,37.4,22.7,18.0,12.1,52,34,16,27.67,27.55,11,1,11,0.00
2013-3-30,65.7,59.7,56.1,25.1,16.4,12.1,30,18,17,27.76,27.61,8,1,8,0.00
2013-3-31,67.1,54.8,30.2,23.5,18.2,14.3,59,27,15,27.61,27.43,9,1,9,0.00